Regional Weather Roundup
Issued by NWS

Home | Current Version | Previous Version | Graphics & Text | Print | Product List | Glossary Off
Versions: 1 2 3 4 5 6 7 8 9 10 11 12 13 14 15 16 17 18 19 20 21 22 23 24 25 26 27 28 29 30 31 32 33 34 35 36 37 38 39 40 41 42 43 44 45 46 47 48 49 50

000
ASUS43 KMPX 260001
RWRMN
WEATHER ROUNDUP FOR MINNESOTA
NATIONAL WEATHER SERVICE TWIN CITIES/CHANHASSEN MN
700 PM CDT MON MAY 25 2015


NOTE: "FAIR" INDICATES FEW OR NO CLOUDS BELOW 12,000 FEET WITH NO
SIGNIFICANT WEATHER AND/OR OBSTRUCTIONS TO VISIBILITY. N/A MEANS
CURRENT SKY AND/OR WEATHER CONDITIONS ARE NOT AVAILABLE.

MNZ060>063-068>070-260100-
   Twin Cities Metro

CITY           SKY/WX    TMP DP  RH WIND       PRES   REMARKS
TWIN CITIES    MOSUNNY   72  57  59 SW10      29.72F
6HR MIN TEMP:  65; 6HR MAX TEMP:  73;

ST PAUL        MOSUNNY   71  59  65 SW9       29.72F
CRYSTAL        MOSUNNY   71  57  61 W13G18    29.71S
LAKEVILLE      MOSUNNY   72  61  68 W7        29.73S
EDEN PRAIRIE   SUNNY     71  57  61 W13G21    29.72S
6HR MIN TEMP:  64; 6HR MAX TEMP:  72;

SOUTH ST PAUL  MOSUNNY   72  58  62 W5        29.72S
LAKE ELMO      CLOUDY    70  61  73 SW7       29.74S
$$
MNZ001>005-007-008-013>017-022>024-027-028-260100-
   Northwest Minnesota

CITY           SKY/WX    TMP DP  RH WIND       PRES   REMARKS
BEMIDJI        LGT RAIN  56  54  93 CALM      29.81R
HALLOCK        MOSUNNY   79  37  22 E6        29.74S
ROSEAU         CLOUDY    72  54  53 SW10      29.76S
WARROAD        CLOUDY    70  55  60 SW8       29.77R
THIEF RVR FALL CLOUDY    68  46  45 SW7       29.80S
CROOKSTON      PTSUNNY   70  48  46 S9        29.80S
FOSSTON        LGT RAIN  59  54  82 CALM      29.82R
DETROIT LAKES  DRIZZLE   59  54  82 NE10G16   29.82R
MOORHEAD       CLOUDY    63  54  72 E8        29.81S
PARK RAPIDS    LGT RAIN  57  53  86 NE10      29.78S
MAHNOMEN       DRIZZLE   58  53  83 E16G22    29.79F
$$
MNZ006-009>011-018-025>026-260100-
   North Central Minnesota

CITY           SKY/WX    TMP DP  RH WIND       PRES   REMARKS
BAUDETTE       CLOUDY    66  54  65 S9        29.77R
FLAG ISLAND    CLOUDY    61  55  82 S8        29.75R
INTL FALLS     LGT RAIN  58  54  86 SE7       29.80R
6HR MIN TEMP:  58; 6HR MAX TEMP:  66; 6HR PCP:  0.01;

WASKISH        CLOUDY    61  54  77 CALM      29.81R
BIG FORK       RAIN      57  54  88 N3        29.81R
LONGVILLE      RAIN      55  54  94 N7        29.77R
GRAND RAPIDS   CLOUDY    55  52  88 N8        29.77R
CRANE LAKE     DRIZZLE   55  54  94 NE3       29.81R
ORR            CLOUDY    55  52  88 CALM      29.77S
COOK           DRIZZLE   57  55  94 NE5       29.79R
WALKER         RAIN      56  55  95 N5        29.79S
$$
MNZ012-019>021-037-260100-
   Northeast Minnesota

CITY           SKY/WX    TMP DP  RH WIND       PRES   REMARKS
DULUTH         LGT RAIN  49  48  97 E7        29.74R FOG
6HR MIN TEMP:  49; 6HR MAX TEMP:  55; 6HR PCP:  0.13;

ELY            LGT RAIN  55  52  88 NE6       29.77R
HIBBING        RAIN      56  52  86 N7        29.76R FOG
EVELETH        LGT RAIN  55  54  94 NE13      29.76R
DULUTH HARBOR  DRIZZLE   45  43  93 NE9       29.76S
TWO HARBORS    DRIZZLE   54  48  82 NE5       29.73S
GRAND MARAIS     N/A     49  47  93 CALM      29.73R
G MARAIS ARPRT DRIZZLE   54  48  82 N9        29.75R
$$
MNZ029>031-032-039>041-046>048-054>057-064-260100-
   West Central Minnesota

CITY           SKY/WX    TMP DP  RH WIND       PRES   REMARKS
FERGUS FALLS   PTSUNNY   61  52  72 NE16G26   29.79R
WHEATON        CLOUDY    59  54  82 N9        29.81R
MORRIS           N/A     63  55  77 N15       29.76R
ALEXANDRIA     CLOUDY    58  54  86 N10       29.75R
ELBOW LAKE     CLOUDY    59  53  79 NE17G23   29.77R
WADENA         PTSUNNY   55  52  88 NE22G31   29.75R
GLENWOOD       MOSUNNY   63  55  77 NW12      29.74R
APPLETON       PTSUNNY   64  55  72 NW9       29.75S
BENSON         CLOUDY    64  55  72 N9        29.74S
ORTONVILLE     CLOUDY    61  54  77 N18G24    29.78R
WILLMAR        FAIR      66  57  72 W17       29.75R
$$
MNZ033>034-036-042>043-049>051-058-059-260100-
   Central Minnesota

CITY           SKY/WX    TMP DP  RH WIND       PRES   REMARKS
ST CLOUD       PTSUNNY   67  57  70 SW14G22   29.70S
6HR MIN TEMP:  62; 6HR MAX TEMP:  69; 6HR PCP: TRACE;

SAUK CENTRE    CLOUDY    63  56  80 W9        29.72R
PAYNESVILLE    MOSUNNY   62  56  79 SW16      29.73R
AITKIN         CLOUDY    57  52  82 CALM      29.71R
PINE RIVER     DRIZZLE   54  54 100 N14G20    29.79R
BRAINERD       CLOUDY    59  58  96 N6        29.72R
STAPLES        LGT RAIN  55  54  94 N15G22    29.74R
LONG PRAIRIE   FAIR      61  55  82 NW10      29.72R
LITTLE FALLS   CLOUDY    63  57  82 CALM      29.70R
BUFFALO        MOSUNNY   69  57  65 SW8       29.73S
MAPLE LAKE     SUNNY     70  59  69 SW12      29.73S
$$
MNZ037-044-045-052-053-260100-
   East Central Minnesota

CITY           SKY/WX    TMP DP  RH WIND       PRES   REMARKS
PRINCETON      CLOUDY    70  59  68 SW7       29.71S
MORA           MOSUNNY   64  55  72 SW8G16    29.72R
CAMBRIDGE      CLOUDY    70  55  60 S6        29.70R
RUSH CITY      CLOUDY    67  58  72 SW6       29.71S
MOOSE LAKE     CLOUDY    52  52 100 NE5       29.71R
HINCKLEY       CLOUDY    64  59  82 S8        29.71S
CLOQUET        HVY RAIN  50  48  93 E5        29.73R
MCGREGOR       CLOUDY    55  54  94 N5        29.72S
$$
MNZ071>073-080-081-089-090-097-098-260100-
   Southwest Minnesota

CITY           SKY/WX    TMP DP  RH WIND       PRES   REMARKS
MONTEVIDEO     MOSUNNY   64  57  77 NW10      29.76R
GRANITE FALLS  PTSUNNY   65  57  74 W15       29.77R
CANBY          PTSUNNY   62  55  78 NW12      29.78S
MARSHALL       MOSUNNY   66  54  63 NW13      29.75R
REDWOOD FALLS  SUNNY     69  58  67 W16       29.74S
OLIVIA         MOSUNNY   66  57  72 W17       29.74S
WINDOM         MOSUNNY   72  57  60 NW13      29.75S
WORTHINGTON    MOSUNNY   66  57  72 NW8       29.77R
JACKSON        MOSUNNY   70  61  73 NW8       29.75S
TRACY          MOSUNNY   70  59  66 NW12      29.75F
SLAYTON        PTSUNNY   66  59  78 NW9       29.75F
$$
MNZ065>067-074>077-082>085-091>093-260100-
   South Central Minnesota

CITY           SKY/WX    TMP DP  RH WIND       PRES   REMARKS
MANKATO        PTSUNNY   70  61  73 NW7       29.74S
NEW ULM        MOSUNNY   72  59  64 W14       29.73S
ST JAMES       MOSUNNY   73  61  64 W10       29.74F
FAIRMONT       MOSUNNY   77  52  41 SW14      29.73S
GLENCOE        MOSUNNY   70  61  72 W13G20    29.73S
FARIBAULT      PTSUNNY   70  63  78 W9        29.76R
OWATONNA       MOSUNNY   70  63  78 SE5       29.74F THUNDER
WASECA         CLOUDY    68  55  64 W17G26    29.77R
ALBERT LEA     SUNNY     75  57  53 S9        29.75S
$$
MNZ078>079-086>088-094>096-260100-
   Southeast Minnesota

CITY           SKY/WX    TMP DP  RH WIND       PRES   REMARKS
ROCHESTER      MOSUNNY   72  62  71 CALM      29.77F
6HR MIN TEMP:  64; 6HR MAX TEMP:  75; 6HR PCP:  0.01;

RED WING       PTSUNNY   72  63  73 SW3       29.73S
STANTON        PTSUNNY   70  62  77 S6        29.73S THUNDER
DODGE CENTER   MOSUNNY   70  63  78 SW5       29.75F
WINONA         MOSUNNY   73  57  56 W6        29.76F
AUSTIN         SUNNY     73  57  56 SW16G22   29.75F
PRESTON        MOSUNNY   73  60  64 SW7       29.78F
$$
ABBREVIATIONS USED IN REMARKS
   TC - TEMPERATURES IN CELSIUS
  WCI - WIND CHILL INDEX
   HX - HEAT INDEX
  VSB - VISIBILITY
$$


USA.gov is the U.S. government's official web portal to all federal, state and local government web resources and services.